Weather History for Beaufort, SC

Change the Weather History Date:

Friday, January 11, 2013

  Actual Average (KNBC) Record (KNBC)
Temperature  
Mean Temperature 63 °F -  
Max Temperature 73 °F 56 °F 81 °F (1939)
Min Temperature 53 °F 37 °F 13 °F (1982)
Degree Days  
Heating Degree Days 2    
Growing Degree Days 13 (Base 50)    
Moisture  
Dew Point 59 °F    
Average Humidity 90    
Maximum Humidity 100    
Minimum Humidity 69    
Precipitation  
Precipitation 0.00 in - - ()
Sea Level Pressure  
Sea Level Pressure 30.24 in    
Wind  
Wind Speed 4 mph (East)    
Max Wind Speed 9 mph    
Max Gust Speed -    
Visibility 3 miles    
Events Fog    
Averages and records for this station are not official NWS values.
T = Trace of Precipitation, MM = Missing Value Source: NWS Daily Summary

Daily Weather History Graph

Daily Weather History Graph

Search for Another Location

Airport:

Trip Planner

Search our weather history database for the weather conditions in past years. The results will help you decide how hot, cold, wet, or windy it might be!

Date:

Astronomy

Jan. 11, 2013 Rise Set
Actual Time 7:24 AM EST 5:36 PM EST
Civil Twilight 6:58 AM EST 6:03 PM EST
Nautical Twilight 6:27 AM EST 6:33 PM EST
Astronomical Twilight 5:58 AM EST 7:03 PM EST
Moon 6:58 AM EST (1/11) 5:49 PM EST (1/11)
Length of Visible Light 11h 05m
Length of Day
10h 11m
Waning Crescent, 0% of the Moon is Illuminated
Jan 11
Waning Crescent
Jan 11
New
Jan 18
First Quarter
Jan 26
Full
Feb 3
Last Quarter

Hourly Weather History & Observations

Time (EST) Temp. Dew Point Humidity Pressure Visibility Wind Dir Wind Speed Gust Speed Precip Events Conditions
12:35 AM 57.2 °F 55.4 °F 94% 30.32 in 5.0 mi NNE 5.8 mph - N/A   Overcast
12:55 AM 57.2 °F 55.4 °F 94% 30.32 in 5.0 mi NE 5.8 mph - N/A   Overcast
1:15 AM 57.2 °F 55.4 °F 94% 30.31 in 0.8 mi NE 5.8 mph - N/A   Overcast
1:35 AM 57.2 °F 55.4 °F 94% 30.30 in 0.2 mi ENE 4.6 mph - N/A Fog Fog
1:55 AM 57.2 °F 55.4 °F 94% 30.30 in 0.2 mi ENE 4.6 mph - N/A Fog Fog
2:15 AM 57.2 °F 55.4 °F 94% 30.31 in 0.2 mi NE 3.5 mph - N/A Fog Fog
2:35 AM 57.2 °F 55.4 °F 94% 30.31 in 0.2 mi NNE 3.5 mph - N/A Fog Fog
2:55 AM 55.4 °F 55.4 °F 100% 30.30 in 0.2 mi NE 4.6 mph - N/A Fog Fog
3:15 AM 55.4 °F 55.4 °F 100% 30.30 in 0.2 mi NE 4.6 mph - N/A Fog Fog
3:35 AM 55.4 °F 53.6 °F 94% 30.28 in 0.2 mi ENE 4.6 mph - N/A Fog Fog
3:55 AM 55.4 °F 53.6 °F 94% 30.27 in 0.5 mi NE 4.6 mph - N/A Fog Fog
4:15 AM 55.4 °F 53.6 °F 94% 30.27 in 0.2 mi NNE 3.5 mph - N/A Fog Fog
4:35 AM 53.6 °F 53.6 °F 100% 30.27 in 0.2 mi NE 4.6 mph - N/A Fog Fog
4:55 AM 55.4 °F 53.6 °F 94% 30.26 in 0.2 mi ENE 4.6 mph - N/A Fog Fog
5:15 AM 55.4 °F 53.6 °F 94% 30.26 in 0.2 mi NE 4.6 mph - N/A Fog Fog
5:35 AM 55.4 °F 53.6 °F 94% 30.26 in 0.2 mi NE 4.6 mph - N/A Fog Fog
5:55 AM 53.6 °F 53.6 °F 100% 30.26 in 0.5 mi ENE 3.5 mph - N/A Fog Fog
6:15 AM 53.6 °F 53.6 °F 100% 30.26 in 0.5 mi NNE 3.5 mph - N/A Fog Fog
6:35 AM 53.6 °F 53.6 °F 100% 30.26 in 0.2 mi NE 3.5 mph - N/A Fog Fog
6:55 AM 53.6 °F 53.6 °F 100% 30.27 in 0.2 mi Calm Calm - N/A Fog Fog
7:15 AM 53.6 °F 53.6 °F 100% 30.26 in 0.2 mi NE 3.5 mph - N/A Fog Fog
7:35 AM 53.6 °F 53.6 °F 100% 30.27 in 0.2 mi NNE 3.5 mph - N/A Fog Fog
7:55 AM 55.4 °F 53.6 °F 94% 30.27 in 0.8 mi NE 4.6 mph - N/A   Overcast
8:15 AM 53.6 °F 53.6 °F 100% 30.27 in 0.2 mi ENE 3.5 mph - N/A Fog Fog
8:35 AM 55.4 °F 53.6 °F 94% 30.26 in 0.2 mi Calm Calm - N/A Fog Fog
8:55 AM 55.4 °F 53.6 °F 94% 30.27 in 0.5 mi Calm Calm - N/A Fog Fog
9:15 AM 57.2 °F 55.4 °F 94% 30.28 in 4.0 mi Calm Calm - N/A   Mostly Cloudy
9:35 AM 59.0 °F 59.0 °F 100% 30.28 in 5.0 mi Calm Calm - N/A   Scattered Clouds
9:55 AM 60.8 °F 59.0 °F 94% 30.29 in 7.0 mi Calm Calm - N/A   Clear
10:15 AM 62.6 °F 60.8 °F 94% 30.29 in 7.0 mi Calm Calm - N/A   Clear
10:35 AM 62.6 °F 62.6 °F 100% 30.28 in 7.0 mi Calm Calm - N/A   Clear
10:55 AM 64.4 °F 62.6 °F 94% 30.28 in 7.0 mi Calm Calm - N/A   Scattered Clouds
11:15 AM 64.4 °F 62.6 °F 94% 30.27 in 7.0 mi Calm Calm - N/A   Mostly Cloudy
11:35 AM 69.8 °F 64.4 °F 83% 30.27 in 7.0 mi Calm Calm - N/A   Scattered Clouds
11:55 AM 71.6 °F 64.4 °F 78% 30.25 in 7.0 mi South 6.9 mph - N/A   Mostly Cloudy
12:15 PM 73.4 °F 64.4 °F 73% 30.24 in 7.0 mi SW 4.6 mph - N/A   Scattered Clouds
12:35 PM 73.4 °F 64.4 °F 73% 30.24 in 7.0 mi SSW 5.8 mph - N/A   Clear
12:55 PM 73.4 °F 62.6 °F 69% 30.23 in 7.0 mi SSW 9.2 mph - N/A   Mostly Cloudy
1:15 PM 73.4 °F 62.6 °F 69% 30.22 in 5.0 mi SSW 4.6 mph - N/A   Haze
1:35 PM 73.4 °F 62.6 °F 69% 30.22 in 7.0 mi SSW 5.8 mph - N/A   Mostly Cloudy
1:55 PM 73.4 °F 62.6 °F 69% 30.21 in 7.0 mi South 8.1 mph - N/A   Scattered Clouds
2:15 PM 73.4 °F 62.6 °F 69% 30.20 in 7.0 mi SSW 4.6 mph - N/A   Clear
2:35 PM 73.4 °F 62.6 °F 69% 30.20 in 7.0 mi SSW 4.6 mph - N/A   Clear
2:55 PM 71.6 °F 62.6 °F 73% 30.19 in 5.0 mi South 6.9 mph - N/A   Haze
3:15 PM 71.6 °F 62.6 °F 73% 30.19 in 7.0 mi South 3.5 mph - N/A   Mostly Cloudy
3:35 PM 71.6 °F 62.6 °F 73% 30.19 in 7.0 mi South 5.8 mph - N/A   Scattered Clouds
3:55 PM 71.6 °F 62.6 °F 73% 30.19 in 7.0 mi South 6.9 mph - N/A   Clear
4:15 PM 71.6 °F 62.6 °F 73% 30.19 in 5.0 mi South 3.5 mph - N/A   Haze
4:35 PM 69.8 °F 62.6 °F 78% 30.19 in 5.0 mi SSW 4.6 mph - N/A   Haze
4:55 PM 69.8 °F 62.6 °F 78% 30.19 in 7.0 mi Calm Calm - N/A   Clear
5:15 PM 68.0 °F 62.6 °F 83% 30.19 in 7.0 mi Calm Calm - N/A   Clear
5:35 PM 66.2 °F 62.6 °F 88% 30.19 in 7.0 mi Calm Calm - N/A   Clear
5:55 PM 64.4 °F 62.6 °F 94% 30.19 in 7.0 mi Calm Calm - N/A   Clear
6:15 PM 64.4 °F 62.6 °F 94% 30.19 in 7.0 mi Calm Calm - N/A   Clear
6:35 PM 64.4 °F 62.6 °F 94% 30.19 in 7.0 mi Calm Calm - N/A   Clear
6:55 PM 62.6 °F 60.8 °F 94% 30.19 in 7.0 mi Calm Calm - N/A   Clear
7:15 PM 62.6 °F 60.8 °F 94% 30.19 in 7.0 mi Calm Calm - N/A   Clear
7:35 PM 62.6 °F 60.8 °F 94% 30.19 in 7.0 mi South 3.5 mph - N/A   Clear
7:55 PM 62.6 °F 60.8 °F 94% 30.20 in 5.0 mi Calm Calm - N/A   Clear
8:15 PM 62.6 °F 60.8 °F 94% 30.20 in 5.0 mi Calm Calm - N/A   Mostly Cloudy
8:55 PM 60.8 °F 60.8 °F 100% 30.20 in 0.2 mi Calm Calm - N/A Fog Fog
9:15 PM 60.8 °F 60.8 °F 100% 30.20 in 0.2 mi Calm Calm - N/A Fog Fog
9:35 PM 60.8 °F 60.8 °F 100% 30.20 in 0.2 mi Calm Calm - N/A Fog Fog
9:55 PM 60.8 °F 59.0 °F 94% 30.19 in 0.2 mi Calm Calm - N/A Fog Fog
10:15 PM 60.8 °F 59.0 °F 94% 30.20 in 0.5 mi Calm Calm - N/A Fog Fog
10:35 PM 60.8 °F 60.8 °F 100% 30.20 in 0.5 mi SSW 3.5 mph - N/A Fog Fog
10:55 PM 62.6 °F 60.8 °F 94% 30.20 in 0.2 mi Calm Calm - N/A Fog Fog
11:15 PM 60.8 °F 60.8 °F 100% 30.20 in 0.2 mi West 3.5 mph - N/A Fog Fog
11:35 PM 60.8 °F 60.8 °F 100% 30.19 in 0.2 mi Calm Calm - N/A Fog Fog
11:55 PM 60.8 °F 60.8 °F 100% 30.20 in 0.2 mi Calm Calm - N/A Fog Fog